www.pogodaiklimat.ru

Погода и климат >> Архив погоды >> Индия >> Bhagalpur


ПОГОДА в Bhagalpur

  • Прогноз погоды в Bhagalpur
  • Монитор погоды в Bhagalpur
  • Климат города

АРХИВ ПОГОДЫ в Bhagalpur

Время (UTC), дата Ветер
(напр.,м/с)
 
Видим.   Явления Облачность Т
(С)
Тd
(С)
f
(%)
Тe
(С)
Тes
(С)
Комфортность P
(гПа)
Po
(гПа)
Тmin
(С)
Tmax
(С)
R
(мм)
R24
(мм)
S
(см)
18 16.06 В 1 2000 м мгла 10/6 540 м
[Sc Ac trans]
+30.4 +29.0 92 +53 +53 опасность
перегрева
999.3 999.0
21 16.06 штиль 0 2000 м мгла 10/6 600 м
[Sc As op]
+30.0 +28.9 94 +52 +52 опасность
перегрева
998.5 999.0
00 17.06 штиль 0 2000 м мгла 8/5 600 м
[Sc Ac trans]
+28.2 +27.1 94 +45 +45 опасность
перегрева
998.6 999.0
03 17.06 В 1 2000 м мгла 9/5 600 м
[Sc Ac trans]
+28.0 +26.6 92 +43 +47 опасность
перегрева
1001.4 1001.0 +26.2
06 17.06 штиль 0 2000 м мгла 8/4 600 м
[Sc Ac trans]
+35.0 +29.1 72 +59 +70 опасность
перегрева
999.9 1000.0
09 17.06 штиль 0 2000 м мгла 8/4 600 м
[Sc Ac trans]
+38.6 +30.7 64 +67 +73 опасность
перегрева
998.5 999.0
12 17.06 штиль 0 4000 м мгла 9/6 540 м
[Sc Ac trans]
+34.4 +26.4 63 +51 +51 опасность
перегрева
997.0 997.0 +38.6
15 17.06 штиль 0 2000 м мгла 9/6 540 м
[Sc Ac trans]
+32.8 +30.4 87 +61 +61 опасность
перегрева
998.4 998.0
18 17.06 В 1 2000 м мгла 9/6 540 м
[Sc Ac trans]
+31.0 +28.6 87 +53 +53 опасность
перегрева
999.2 999.0
21 17.06 штиль 0 2000 м мгла 9/6 540 м
[Sc Ac trans]
+29.6 +27.4 88 +48 +48 опасность
перегрева
998.7 999.0
00 18.06 штиль 0 2000 м мгла 9/5 540 м
[Sc Ac trans]
+28.0 +27.2 95 +44 +44 опасность
перегрева
998.9 999.0
03 18.06 штиль 0 2000 м мгла 5/4 600 м
[Sc Ac trans]
+30.6 +28.4 88 +52 +60 опасность
перегрева
999.8 1000.0 +26.6
06 18.06 СВ 1 2000 м мгла 4/0
[Ac trans]
+36.0 +29.0 67 +59 +80 опасность
перегрева
999.9 1000.0
09 18.06 штиль 0 4000 м мгла 4/0
[Ac trans]
+38.0 +30.4 65 +65 +79 опасность
перегрева
998.5 999.0
12 18.06 штиль 0 2000 м мгла 3/0
[Ac trans]
+36.4 +30.9 74 +67 +68 опасность
перегрева
996.9 997.0 +38.5
15 18.06 штиль 0 2000 м мгла 3/0
[Ac trans]
+33.8 +29.8 80 +60 +60 опасность
перегрева
997.6 998.0
18 18.06 В 1 2000 м мгла 3/0
[Ac trans]
+32.0 +29.9 89 +58 +58 опасность
перегрева
999.1 999.0
21 18.06 В 1 2000 м мгла 3/0
[Ac trans]
+30.8 +29.5 93 +55 +55 опасность
перегрева
998.4 998.0
00 19.06 штиль 0 2000 м мгла 9/6 600 м
[Sc Ac trans]
+28.4 +26.2 88 +43 +43 опасность
перегрева
998.8 999.0
03 19.06 штиль 0 2000 м мгла 6/4 600 м
[Sc Ac trans]
+31.0 +27.4 81 +49 +57 опасность
перегрева
1000.0 1000.0 +26.6
06 19.06 штиль 0 2000 м мгла 3/0
[Ac trans]
+36.6 +28.8 64 +59 +84 опасность
перегрева
999.9 1000.0
09 19.06 штиль 0 2000 м мгла 4/0
[Ac trans]
+39.0 +30.3 62 +66 +80 опасность
перегрева
999.1 999.0
12 19.06 штиль 0 2000 м мгла 5/3 600 м
[Sc Ac trans]
+38.0 +32.0 72 +72 +73 опасность
перегрева
997.6 998.0 +39.6
15 19.06 штиль 0 2000 м мгла {гроза} 10/6 600 м
[Sc As op]
+30.8 +26.3 77 +47 +47 опасность
перегрева
999.8 1000.0
18 19.06 штиль 0 2000 м мгла 6/4 600 м
[Sc Ac trans]
+30.2 +27.2 84 +48 +48 опасность
перегрева
1000.2 1000.0
21 19.06 штиль 0 2000 м мгла 6/4 600 м
[Sc Ac trans]
+29.4 +26.9 86 +46 +46 опасность
перегрева
999.1 999.0
00 20.06 штиль 0 2000 м мгла 9/6 600 м
[Sc Ac trans]
+29.2 +27.3 90 +47 +47 опасность
перегрева
1000.7 1001.0
03 20.06 штиль 0 2000 м мгла 10/6 600 м
[Sc Ac trans]
+30.4 +27.7 86 +50 +52 опасность
перегрева
1001.9 1002.0 +27.5
06 20.06 штиль 0 2000 м мгла 9/5 600 м
[Sc Ac trans]
+33.6 +29.6 80 +59 +67 опасность
перегрева
1002.5 1003.0
09 20.06 штиль 0 2000 м мгла 6/4 600 м
[Sc Ac trans]
+36.6 +29.7 68 +62 +71 опасность
перегрева
1000.5 1001.0
12 20.06 штиль 0 2000 м мгла 6/4 600 м
[Sc Ac trans]
+35.0 +30.4 77 +63 +64 опасность
перегрева
999.2 999.0 +37.0
15 20.06 В 1 2000 м мгла 6/4 600 м
[Sc Ac trans]
+30.6 +28.1 87 +51 +51 опасность
перегрева
1000.8 1001.0
18 20.06 штиль 0 2000 м мгла 5/3 600 м
[Sc Ac trans]
+30.0 +27.2 85 +48 +48 опасность
перегрева
1002.6 1003.0
21 20.06 штиль 0 2000 м мгла 6/3 600 м
[Sc Ac trans]
+29.2 +26.7 86 +45 +45 опасность
перегрева
1001.7 1002.0
00 21.06 штиль 0 2000 м мгла 5/4 600 м
[Sc Ac trans]
+28.4 +27.0 92 +45 +45 опасность
перегрева
1002.4 1002.0
03 21.06 штиль 0 2000 м мгла 4/0
[Ac trans]
+31.4 +28.4 84 +53 +65 опасность
перегрева
1002.4 1002.0 +26.8
06 21.06 штиль 0 2000 м мгла 5/4 600 м
[Sc Ac trans]
+37.4 +29.7 65 +63 +79 опасность
перегрева
1001.7 1002.0
09 21.06 штиль 0 2000 м мгла 4/3 600 м
[Sc Ac trans]
+39.2 +31.1 64 +69 +81 опасность
перегрева
999.4 999.0
12 21.06 штиль 0 4000 м мгла 5/4 600 м
[Sc Ac trans]
+37.0 +31.0 72 +68 +68 опасность
перегрева
998.4 998.0 +39.5
15 21.06 ЮВ 1 2000 м мгла 5/4 600 м
[Sc Ac trans]
+33.2 +30.4 85 +61 +61 опасность
перегрева
1000.0 1000.0
18 21.06 штиль 0 2000 м мгла 3/1 600 м
[Sc Ac trans]
+31.8 +28.0 80 +52 +52 опасность
перегрева
1000.8 1001.0
21 21.06 штиль 0 2000 м мгла 4/1 600 м
[Sc Ac trans]
+31.0 +27.4 81 +49 +49 опасность
перегрева
999.8 1000.0
00 22.06 штиль 0 2000 м мгла 8/5 600 м
[Sc Ac trans]
+28.4 +26.2 88 +43 +43 опасность
перегрева
1001.6 1002.0
03 22.06 штиль 0 2000 м мгла 6/4 600 м
[Sc Ac trans]
+31.2 +27.3 80 +50 +57 опасность
перегрева
1001.8 1002.0 +26.6
06 22.06 штиль 0 2000 м мгла 4/0
[Ac trans]
+38.6 +29.2 59 +62 +85 опасность
перегрева
1001.5 1002.0
09 22.06 штиль 0 2000 м мгла 6/5 600 м
[Sc diur, vesp Ac trans]
+40.0 +30.8 60 +68 +76 опасность
перегрева
999.1 999.0
12 22.06 штиль 0 2000 м мгла 8/5 600 м
[Sc diur, vesp Ac trans]
+37.4 +30.3 67 +65 +65 опасность
перегрева
997.5 998.0 +40.8
15 22.06 штиль 0 2000 м мгла 4/1 600 м
[Sc Ac trans]
+33.8 +29.9 80 +60 +60 опасность
перегрева
1000.0 1000.0
18 22.06 штиль 0 2000 м мгла 3/0
[Ac trans]
+32.4 +29.2 83 +56 +56 опасность
перегрева
1000.6 1001.0
21 22.06 штиль 0 2000 м мгла 3/0
[Ac trans]
+31.2 +28.5 86 +53 +53 опасность
перегрева
999.4 999.0
00 23.06 штиль 0 2000 м мгла 6/3 600 м
[Sc Ac trans]
+30.4 +29.0 92 +53 +53 опасность
перегрева
1000.2 1000.0
03 23.06 штиль 0 2000 м мгла 9/6 600 м
[Sc Ac trans]
+32.6 +29.1 82 +56 +60 опасность
перегрева
1002.0 1002.0 +28.5
06 23.06 штиль 0 2000 м мгла {морось} 9/5 600 м
[Sc Ac trans]
+31.2 +27.9 83 +51 +59 опасность
перегрева
1003.0 1003.0 0.0
09 23.06 штиль 0 2000 м мгла 10/6 600 м
[Sc As op]
+32.2 +28.1 79 +53 +54 опасность
перегрева
1000.8 1001.0 0.0
12 23.06 штиль 0 2000 м мгла 10/5 600 м
[Sc Ac trans]
+34.8 +30.6 79 +64 +64 опасность
перегрева
999.1 999.0 +35.3 0.0
15 23.06 штиль 0 2000 м мгла 8/3 600 м
[Sc Ac trans]
+31.4 +29.0 87 +54 +54 опасность
перегрева
1000.2 1000.0 0.0

 

Местоположение метеостанции Bhagalpur (Bihar, Индия): широта 25.23 долгота 86.95 высота над уровнем моря 49 м.

В архиве по умолчанию представлена погода в Bhagalpur за последнюю неделю. Архивные данные за месяц целиком и за предыдущие месяцы, начиная с января 2011 года, Вы можете получить, выбрав интересующий диапазон дат из раскрывающегося списка и нажав кнопку "Ввод!".


*Определитесь, кто Вы:
робот инопланетянин человек

Внимание! Время в таблицах - всемирное. Для получения местного времени необходимо прибавить поправку, которая в Bhagalpur равна 5.5 ч.

Смотрите также архив погоды в соседних городах и на ближайших метеорологических станциях:

Погода в Purnea (Bihar, Индия) (53 км)
Погода в Malda (West Bengal, Индия) (121 км)
Погода в Biratnagar (Непал) (142 км)
Погода в Badalgachhi (Бангладеш) (156 км)
Погода в Asansol (West Bengal, Индия) (172 км)
Погода в Dinajpur (Бангладеш) (180 км)
Погода в Baharampur (West Bengal, Индия) (181 км)
Погода в Balurghat (West Bengal, Индия) (184 км)
Погода в Dimla (Бангладеш) (187 км)
Погода в Patna (Bihar, Индия) (190 км)

Пояснения к столбцам:

Ветер - указаны скорость ветра в м/с - средняя за 10 мин, порывы в срок и между сроками (в фигурных скобках) и направление, откуда дует ветер: С - северный, СВ - северо-восточный, В - восточный, ЮВ - юго-восточный, Ю - южный, ЮЗ - юго-западный, З - западный, СЗ - северо-западный.
Видимость - горизонтальная дальность видимости в метрах или километрах. При видимости от 1 до 10 км при отсутствии осадков обычно наблюдается дымка, при ухудшении видимости до 1 км и менее - туман. В сухую погоду видимость может ухудшаться дымом, пылью или мглою.
Явления - указаны атмосферные явления, наблюдавшиеся в срок или в последний час перед сроком; фигурными скобками обозначены явления, наблюдавшиеся между сроками (за 1-3 часа до срока); квадратными скобками обозначены град или гололедные отложения с указанием их диаметра в мм.
Облачность - указаны через наклонную черту общая и нижняя облачность в баллах и высота нижней границы облаков в метрах; квадратными скобками обозначены формы облаков: Ci - перистые, Cs - перисто-слоистые, Cc - перисто-кучевые, Ac - высококучевые, As - высокослоистые, Sc - слоисто-кучевые, Ns - слоисто-дождевые, Cu - кучевые, Cb - кучево-дождевые. Подробнее классификацию облаков см. в Атласе облаков (PDF).
T - Температура воздуха - температура, измеренная на высоте 2 м над землей.
Td - Температура точки росы - температура, при понижении до которой содержащийся в воздухе водяной пар достигнет насыщения.
f - Относительная влажность воздуха - влажноcть воздуха, измеренная на высоте 2 м над землей.
Te - Эффективная температура - температура, которую ощущает одетый по сезону человек в тени. Характеристика душности погоды. При расчете учитывается влияние влажности воздуха и скорости ветра на теплоощущения человека.
Tes - Эффективная температура на солнце - температура, которую ощущает человек, с поправкой на солнечный нагрев. Характеристика знойности погоды. Зависит от высоты солнца над горизонтом, облачности и скорости ветра. Ночью, в пасмурную погоду, а также при ветре 12 м/с и более поправка равна нулю.
P - Атмосферное давление - приведенное к уровню моря атмосферное давление.
Po - Атмосферное давление - измеренное на уровне метеостанции атмосферное давление.
Tmin - Минимальная температура - минимум температуры воздуха на высоте 2 м над землей.
Tmax - Максимальная температура - максимум температуры воздуха на высоте 2 м над землей.
R - Количество осадков - Количество выпавших осадков за период времени, мм. При наведении курсора мыши на число - период времени, за который выпало указанное количество осадков.
R24 - Количество осадков - Количество выпавших осадков за 24 часа, мм.
S - Снежный покров - Высота снежного покрова, см. При наведении курсора мыши на число - состояние снежного покрова и степень покрытия местности в баллах.